TimeCST,TemperatureF,Dew PointF,Humidity,Sea Level PressureIn,VisibilityMPH,Wind Direction,Wind SpeedMPH,Gust SpeedMPH,PrecipitationIn,Events,Conditions,WindDirDegrees,DateUTC
12:15 AM,10.0,4.6,79,30.41,10.0,WNW,4.6,-,N/A,,Clear,300,2013-11-27 06:15:00
12:35 AM,8.8,4.8,84,30.41,10.0,Calm,Calm,-,N/A,,Clear,0,2013-11-27 06:35:00
12:55 AM,10.9,6.1,81,30.40,10.0,NNW,3.5,-,N/A,,Clear,340,2013-11-27 06:55:00
1:15 AM,9.0,3.9,80,30.39,10.0,NW,5.8,-,N/A,,Clear,320,2013-11-27 07:15:00
1:35 AM,7.7,3.7,84,30.39,10.0,Calm,Calm,-,N/A,,Clear,0,2013-11-27 07:35:00
1:55 AM,7.5,3.0,82,30.39,10.0,Calm,Calm,-,N/A,,Clear,0,2013-11-27 07:55:00
2:15 AM,7.9,3.9,84,30.39,10.0,Calm,Calm,-,N/A,,Clear,0,2013-11-27 08:15:00
2:35 AM,7.0,2.8,83,30.38,10.0,Calm,Calm,-,N/A,,Clear,0,2013-11-27 08:35:00
2:55 AM,7.5,3.4,83,30.38,10.0,Calm,Calm,-,N/A,,Clear,0,2013-11-27 08:55:00
3:15 AM,7.7,3.6,83,30.37,10.0,Calm,Calm,-,N/A,,Clear,0,2013-11-27 09:15:00
3:35 AM,7.7,3.7,84,30.38,10.0,Calm,Calm,-,N/A,,Clear,0,2013-11-27 09:35:00
3:55 AM,7.3,3.2,83,30.37,10.0,Calm,Calm,-,N/A,,Clear,0,2013-11-27 09:55:00
4:15 AM,6.8,2.3,82,30.36,10.0,Calm,Calm,-,N/A,,Clear,0,2013-11-27 10:15:00
4:35 AM,6.1,1.2,80,30.36,10.0,Calm,Calm,-,N/A,,Clear,0,2013-11-27 10:35:00
4:55 AM,6.4,2.3,83,30.35,10.0,Calm,Calm,-,N/A,,Clear,0,2013-11-27 10:55:00
5:15 AM,5.7,1.6,83,30.35,10.0,Calm,Calm,-,N/A,,Clear,0,2013-11-27 11:15:00
5:35 AM,6.8,2.7,83,30.34,10.0,Calm,Calm,-,N/A,,Clear,0,2013-11-27 11:35:00
5:55 AM,5.9,2.1,84,30.33,10.0,Calm,Calm,-,N/A,,Clear,0,2013-11-27 11:55:00
6:15 AM,6.3,2.7,85,30.32,10.0,Calm,Calm,-,N/A,,Clear,0,2013-11-27 12:15:00
6:35 AM,5.0,1.2,84,30.30,10.0,Calm,Calm,-,N/A,,Clear,0,2013-11-27 12:35:00
6:55 AM,5.5,1.9,85,30.31,10.0,Calm,Calm,-,N/A,,Clear,0,2013-11-27 12:55:00
7:15 AM,6.6,2.7,84,30.30,10.0,Calm,Calm,-,N/A,,Clear,0,2013-11-27 13:15:00
7:35 AM,7.2,2.8,82,30.31,10.0,Calm,Calm,-,N/A,,Clear,0,2013-11-27 13:35:00
7:55 AM,6.6,2.1,82,30.30,10.0,Calm,Calm,-,N/A,,Clear,0,2013-11-27 13:55:00
8:15 AM,8.4,4.3,83,30.29,10.0,Calm,Calm,-,N/A,,Clear,0,2013-11-27 14:15:00
8:35 AM,12.7,8.2,82,30.28,10.0,SE,4.6,-,N/A,,Clear,140,2013-11-27 14:35:00
8:55 AM,16.7,11.5,80,30.28,10.0,South,6.9,-,N/A,,Clear,190,2013-11-27 14:55:00
9:15 AM,19.0,12.0,74,30.27,10.0,South,9.2,-,N/A,,Clear,170,2013-11-27 15:15:00
9:35 AM,20.7,12.4,70,30.27,10.0,South,10.4,-,N/A,,Clear,180,2013-11-27 15:35:00
9:55 AM,22.5,13.1,67,30.25,10.0,South,11.5,-,N/A,,Clear,180,2013-11-27 15:55:00
10:15 AM,24.6,13.1,62,30.24,10.0,South,16.1,-,N/A,,Clear,190,2013-11-27 16:15:00
10:35 AM,26.4,12.6,56,30.22,10.0,South,13.8,-,N/A,,Clear,190,2013-11-27 16:35:00
10:55 AM,28.9,11.1,47,30.20,10.0,South,17.3,-,N/A,,Clear,180,2013-11-27 16:55:00
11:15 AM,30.6,10.6,43,30.18,10.0,South,16.1,20.7,N/A,,Clear,180,2013-11-27 17:15:00
11:35 AM,31.8,11.3,43,30.16,10.0,South,16.1,20.7,N/A,,Clear,190,2013-11-27 17:35:00
11:55 AM,32.5,11.3,41,30.13,10.0,South,18.4,24.2,N/A,,Clear,170,2013-11-27 17:55:00
12:15 PM,33.8,12.2,41,30.11,10.0,South,19.6,26.5,N/A,,Clear,180,2013-11-27 18:15:00
12:35 PM,35.6,12.4,38,30.10,10.0,South,20.7,25.3,N/A,,Clear,190,2013-11-27 18:35:00
12:55 PM,36.3,12.4,37,30.08,10.0,South,18.4,26.5,N/A,,Clear,180,2013-11-27 18:55:00
1:15 PM,37.4,12.9,37,30.06,10.0,South,20.7,26.5,N/A,,Clear,190,2013-11-27 19:15:00
1:35 PM,38.5,13.1,35,30.05,10.0,South,19.6,25.3,N/A,,Clear,180,2013-11-27 19:35:00
1:55 PM,39.2,13.3,35,30.04,10.0,South,17.3,26.5,N/A,,Clear,190,2013-11-27 19:55:00
2:15 PM,39.7,13.6,35,30.02,10.0,South,17.3,26.5,N/A,,Clear,190,2013-11-27 20:15:00
2:35 PM,39.7,13.6,35,30.01,10.0,South,18.4,25.3,N/A,,Clear,180,2013-11-27 20:35:00
2:55 PM,38.7,13.5,36,29.99,10.0,South,18.4,28.8,N/A,,Clear,180,2013-11-27 20:55:00
3:15 PM,38.8,13.5,35,29.99,10.0,South,19.6,25.3,N/A,,Clear,180,2013-11-27 21:15:00
3:35 PM,40.1,14.2,35,29.99,10.0,South,18.4,25.3,N/A,,Clear,180,2013-11-27 21:35:00
3:55 PM,40.3,14.2,35,29.99,10.0,South,16.1,21.9,N/A,,Clear,180,2013-11-27 21:55:00
4:15 PM,39.7,15.1,37,29.97,10.0,South,15.0,20.7,N/A,,Clear,180,2013-11-27 22:15:00
4:35 PM,39.0,16.0,39,29.97,10.0,South,9.2,-,N/A,,Clear,180,2013-11-27 22:35:00
4:55 PM,38.5,16.7,41,29.97,10.0,South,4.6,-,N/A,,Clear,180,2013-11-27 22:55:00
5:15 PM,37.8,17.1,43,29.97,10.0,SSW,6.9,-,N/A,,Clear,200,2013-11-27 23:15:00
5:35 PM,38.8,18.5,44,29.98,10.0,SSW,9.2,-,N/A,,Clear,200,2013-11-27 23:35:00
5:55 PM,37.4,18.5,46,29.97,10.0,South,5.8,-,N/A,,Clear,170,2013-11-27 23:55:00
6:15 PM,35.8,18.7,50,29.97,10.0,South,6.9,-,N/A,,Clear,170,2013-11-28 00:15:00
6:35 PM,34.3,18.5,52,29.97,10.0,SE,4.6,-,N/A,,Clear,130,2013-11-28 00:35:00
6:55 PM,33.8,19.0,55,29.97,10.0,SE,6.9,-,N/A,,Clear,140,2013-11-28 00:55:00
7:15 PM,33.6,19.0,55,29.97,10.0,Calm,Calm,-,N/A,,Scattered Clouds,0,2013-11-28 01:15:00
7:35 PM,34.2,19.4,55,29.97,10.0,South,3.5,-,N/A,,Scattered Clouds,190,2013-11-28 01:35:00
7:55 PM,34.7,20.3,56,30.00,10.0,WNW,5.8,-,N/A,,Clear,290,2013-11-28 01:55:00
8:15 PM,35.2,21.2,57,30.00,10.0,WNW,6.9,-,N/A,,Clear,300,2013-11-28 02:15:00
8:35 PM,32.9,21.2,62,30.01,10.0,NNW,4.6,-,N/A,,Clear,330,2013-11-28 02:35:00
8:55 PM,33.3,21.7,63,30.01,10.0,NW,6.9,-,N/A,,Scattered Clouds,310,2013-11-28 02:55:00
9:15 PM,32.2,21.6,65,30.01,10.0,NNW,4.6,-,N/A,,Clear,330,2013-11-28 03:15:00
9:35 PM,32.0,21.6,65,30.01,10.0,NNW,3.5,-,N/A,,Clear,340,2013-11-28 03:35:00
9:55 PM,32.2,21.7,65,30.01,10.0,Calm,Calm,-,N/A,,Clear,0,2013-11-28 03:55:00
10:15 PM,33.3,22.8,66,30.02,10.0,NNW,4.6,-,N/A,,Clear,330,2013-11-28 04:15:00
10:35 PM,32.2,22.5,67,30.03,10.0,NNW,4.6,-,N/A,,Clear,330,2013-11-28 04:35:00
10:55 PM,30.9,22.1,70,30.03,10.0,NNW,5.8,-,N/A,,Clear,340,2013-11-28 04:55:00
11:15 PM,31.5,22.5,69,30.05,10.0,Calm,Calm,-,N/A,,Clear,0,2013-11-28 05:15:00
11:35 PM,31.8,23.2,70,30.06,10.0,NNW,8.1,-,N/A,,Clear,330,2013-11-28 05:35:00
11:55 PM,31.8,22.8,69,30.07,10.0,NNW,4.6,-,N/A,,Clear,330,2013-11-28 05:55:00